Regional Weather Roundup
Issued by NWS

Home | Current Version | Previous Version | Graphics & Text | Print | Product List | Glossary On
Versions: 1 2 3 4 5 6 7 8 9 10 11 12 13 14 15 16 17 18 19 20 21 22 23 24 25 26 27 28 29 30 31 32 33 34 35 36 37 38 39 40 41 42 43 44 45 46 47 48 49 50
000
ASUS45 KBOU 301507
RWRCO

WEATHER ROUNDUP FOR COLORADO
NATIONAL WEATHER SERVICE DENVER/BOULDER CO
900 AM MDT TUE SEP 30 2014

NOTE: "FAIR" INDICATES FEW OR NO CLOUDS BELOW 12000 FEET WITH NO
SIGNIFICANT WEATHER AND/OR OBSTRUCTIONS TO VISIBILITY.

COZ001>005-013-030-031-301600-
...NORTHWEST COLORADO...

CITY           SKY/WX    TMP DP  RH WIND       PRES   REMARKS
CRAIG          CLOUDY    50  38  63 SW8       30.00S
HAYDEN         CLOUDY    46  36  66 W5        30.00S
MEEKER         CLOUDY    45  41  86 NE5       30.02S
MOUNT WERNER   NOT AVBL
STEAMBOAT SPGS CLOUDY    43  39  87 CALM      30.02S
WALDEN         CLOUDY    37  32  81 SW22G29   30.00R
$$

COZ006>008-011-301600-
...WEST CENTRAL VALLEYS...

CITY           SKY/WX    TMP DP  RH WIND       PRES   REMARKS
GRAND JUNCTION CLOUDY    49  42  77 SE8       30.01S
MONTROSE       CLOUDY    45  42  89 E3        30.06S
EAGLE          CLOUDY    43  43 100 NE5       30.07S
RIFLE          LGT RAIN  44  40  85 CALM      30.03S
DELTA          MOSUNNY   46  43  91 CALM      30.04F
NUCLA          MOSUNNY   46  41  81 CALM      30.08F
$$

COZ017>023-064>068-301600-
...SOUTHWEST COLORADO...

CITY           SKY/WX    TMP DP  RH WIND       PRES   REMARKS
DURANGO        SUNNY     42  37  82 E3        30.10S
CORTEZ         SUNNY     48  41  76 E6        30.07R
PAGOSA SPRINGS SUNNY     39  36  91 CALM      30.13R
TELLURIDE      CLOUDY   N/A N/A N/A CALM      30.14S
WOLF CREEK PAS   N/A     27  27 100 SW13      30.21S WCI  16
$$

COZ009-010-012-014-032>034-037-058>063-301600-
...CENTRAL COLORADO...

CITY           SKY/WX    TMP DP  RH WIND       PRES   REMARKS
ASPEN          CLOUDY    40  36  86 SW5       30.07F
BUENA VISTA    MOSUNNY   50  25  38 SW15G24   30.02S
COPPER MTN     CLOUDY    30  27  86 W14G23    30.15S WCI  20
BERTHOUD PASS  CLOUDY    21  19  93 NW29G48   30.12R WCI   3
COTTONWOOD PAS CLOUDY    43  23  45 W17G31    30.08R
GUNNISON       CLOUDY    37  34  87 CALM      30.12R
KREMMLING      PTSUNNY   43  34  70 W14       30.05R
LEADVILLE      CLOUDY    36  25  64 N10       30.10S
SALIDA         MOSUNNY   52  29  42 SW18G32   30.09S
SUNLIGHT       LGT SNOW  34  34 100 CALM      30.16R
WILKERSON PASS NOT AVBL
$$

COZ069>075-301600-
...SAN LUIS VALLEY/SANGRE DE CRISTO MOUNTAINS...

CITY           SKY/WX    TMP DP  RH WIND       PRES   REMARKS
ALAMOSA        SUNNY     39  31  72 CALM      30.08F
LA VETA PASS   SUNNY     34  25  69 SW10G23   30.09R WCI  26
SAGUACHE       CLOUDY    37  32  81 CALM      30.09F
$$

COZ035-036-038>040-301600-
...NORTHERN COLORADO FRONT RANGE...

CITY           SKY/WX    TMP DP  RH WIND       PRES   REMARKS
DENVER INTL AP MOSUNNY   55  38  52 SW12      29.84S
DMNS CITY PARK   N/A     57  37  46 SW13      29.85S
AURORA         MOSUNNY   55  36  47 SW7       29.88R
FRONT RANGE AP NOT AVBL
ERIE MUNI ARPT SUNNY     55  42  61 CALM      29.84R
BOULDER MUN AP SUNNY     57  45  62 CALM      29.83S
CENTENNIAL     MOSUNNY   56  37  49 SW6       29.88R
BROOMFIELD     MOSUNNY   59  30  33 W25G31    29.86R
FORT COLLINS   SUNNY     48  45  87 N6        29.85S
LONGMONT       SUNNY     60  41  49 NW7       29.84S
$$

COZ041-046-047-076>085-087-088-301600-
...PIKES PEAK/PALMER DIVIDE AND SOUTHERN FOOTHILLS...

CITY           SKY/WX    TMP DP  RH WIND       PRES   REMARKS
COLO. SPRINGS  MOSUNNY   50  35  56 CALM      29.92S
A. F. ACADEMY  SUNNY     55  24  29 VRB2      29.92F
ELLICOTT       NOT AVBL
FALCON         SUNNY     55  26  32 W12       29.95S
FORT CARSON    SUNNY     49  39  67 N5        29.90F
LIMON          SUNNY     49  43  80 SE6       29.89F
MONUMENT HILL  SUNNY     52  30  43 W12G17    29.93R
TRINIDAD       SUNNY     52  33  48 W8        29.95R
$$

COZ042>045-048>051-090-091-301600-
...NORTHEAST COLORADO...

CITY           SKY/WX    TMP DP  RH WIND       PRES   REMARKS
GREELEY ARPT   SUNNY     50  41  71 NE3       29.86R
AKRON          MOSUNNY   56  44  64 S14       29.84S
BURLINGTON     SUNNY     58  45  62 S9        29.86S
WRAY           SUNNY     59  49  68 W7        29.83S
STERLING       MOSUNNY   57  50  77 SW13      29.81F
HOLYOKE        SUNNY     59  48  67 SW8       29.82R
FORT MORGAN    MOSUNNY   53  43  69 CALM      29.85R
$$

COZ086-089-092>099-301600-
...SOUTHEAST COLORADO...

CITY           SKY/WX    TMP DP  RH WIND       PRES   REMARKS
PUEBLO         SUNNY     50  40  68 SW3       29.90S
LA JUNTA       SUNNY     56  45  66 NW6       29.88S
LAMAR          SUNNY     55  49  80 CALM      29.86S
SPRINGFIELD      N/A     57  49  74 NW6       29.88F
$$


USA.gov is the U.S. government's official web portal to all federal, state and local government web resources and services.